EW9341 Weather Reports


Display with metric or nautical units.
time (UTC)temp
F
wind
direction
speed
MPH
gust
MPH
rain 1hr
in
rain 24hr
in
rain mn
in
humidity
%
barometer
mb
20260506194311 54 355 0.0 0.0 0.00 0.00 0.00 67 1011.6
20260506193306 54 333 2.0 5.0 0.00 0.00 0.00 67 1011.7
20260506192807 54 26 2.0 5.0 0.00 0.00 0.00 68 1011.7
20260506191808 54 34 1.0 3.0 0.00 0.00 0.00 67 1011.5
20260506191531 54 35 1.0 3.0 0.00 0.00 0.00 67 1011.5
20260506190801 54 355 1.0 4.0 0.00 0.00 0.00 67 1011.3
20260506190301 54 19 1.0 4.0 0.00 0.00 0.00 67 1011.3
20260506185801 54 37 0.0 3.0 0.00 0.00 0.00 67 1011.1
20260506185531 54 5 1.0 3.0 0.00 0.00 0.00 67 1011.2
20260506184801 54 0 1.0 3.0 0.00 0.00 0.00 66 1011.1
20260506184302 54 65 2.0 3.0 0.00 0.00 0.00 66 1011.0
20260506183801 54 44 2.0 4.0 0.00 0.00 0.00 66 1010.9
20260506183301 54 74 2.0 4.0 0.00 0.00 0.00 65 1010.9
20260506182255 54 55 1.0 3.0 0.00 0.00 0.00 65 1010.8
20260506181754 55 58 1.0 3.0 0.00 0.00 0.00 65 1010.7
20260506181254 55 101 1.0 3.0 0.00 0.00 0.00 64 1010.7
20260506180750 55 64 1.0 3.0 0.00 0.00 0.00 64 1010.6
20260506180251 55 76 1.0 3.0 0.00 0.00 0.00 64 1010.6
20260506175750 55 81 1.0 3.0 0.00 0.00 0.00 63 1010.6
20260506175251 55 69 2.0 5.0 0.00 0.00 0.00 64 1010.4
20260506174747 55 55 2.0 5.0 0.00 0.00 0.00 63 1010.4
20260506174247 55 49 2.0 7.0 0.00 0.00 0.00 63 1010.4
20260506173749 55 58 3.0 7.0 0.00 0.00 0.00 63 1010.3
20260506173247 55 90 2.0 7.0 0.00 0.00 0.00 63 1010.2
20260506172747 55 61 2.0 7.0 0.00 0.00 0.00 62 1010.2
20260506172248 55 103 2.0 7.0 0.00 0.00 0.00 62 1010.1
20260506171740 55 76 3.0 7.0 0.00 0.00 0.00 62 1010.0
20260506171239 55 61 3.0 8.0 0.00 0.00 0.00 62 1010.1
20260506170740 55 71 3.0 8.0 0.00 0.00 0.00 62 1010.0
20260506170238 55 95 3.0 8.0 0.00 0.00 0.00 62 1010.0
20260506165737 55 93 3.0 8.0 0.00 0.00 0.00 62 1010.0
20260506165238 55 99 4.0 9.0 0.00 0.00 0.00 62 1010.0
20260506164736 55 81 4.0 9.0 0.00 0.00 0.00 62 1010.0
20260506164239 55 93 4.0 10.0 0.00 0.00 0.00 62 1010.0
20260506163737 55 136 5.0 10.0 0.00 0.00 0.00 62 1010.1
20260506163508 56 17 6.0 11.0 0.00 0.00 0.00 61 1010.1
20260506162738 56 67 5.0 11.0 0.00 0.00 0.00 61 1010.1
20260506162237 56 99 5.0 12.0 0.00 0.00 0.00 61 1010.1
20260506161737 56 70 5.0 12.0 0.00 0.00 0.00 61 1010.0
20260506161237 56 80 6.0 12.0 0.00 0.00 0.00 60 1010.1
20260506160737 56 96 5.0 12.0 0.00 0.00 0.00 60 1010.1
20260506160237 56 96 4.0 12.0 0.00 0.00 0.00 60 1010.1
20260506155734 56 73 5.0 10.0 0.00 0.00 0.00 60 1010.1
20260506155233 56 50 5.0 10.0 0.00 0.00 0.00 59 1010.1
20260506154732 56 38 4.0 11.0 0.00 0.00 0.00 60 1010.0
20260506154233 56 66 4.0 11.0 0.00 0.00 0.00 60 1010.0
20260506153733 56 84 4.0 12.0 0.00 0.00 0.00 61 1010.1
20260506153232 55 36 5.0 12.0 0.00 0.00 0.00 60 1010.0
20260506152734 55 97 6.0 11.0 0.00 0.00 0.00 60 1010.0
20260506152233 55 59 7.0 12.0 0.00 0.00 0.00 59 1010.0
20260506151733 55 339 6.0 12.0 0.00 0.00 0.00 60 1009.9
20260506151232 55 28 6.0 12.0 0.00 0.00 0.00 61 1010.0
20260506150735 55 104 5.0 12.0 0.00 0.00 0.00 61 1009.9
20260506150229 55 20 5.0 12.0 0.00 0.00 0.00 61 1009.9
20260506145727 56 72 6.0 12.0 0.00 0.00 0.00 60 1009.9
20260506145457 56 84 6.0 12.0 0.00 0.00 0.00 61 1009.9
20260506144500 56 98 6.0 14.0 0.00 0.00 0.00 61 1009.9
20260506143728 56 64 7.0 14.0 0.00 0.00 0.00 60 1009.9
20260506143227 56 65 7.0 16.0 0.00 0.00 0.00 59 1009.8
20260506142724 56 35 8.0 16.0 0.00 0.00 0.00 59 1009.8
20260506142225 56 73 9.0 16.0 0.00 0.00 0.00 58 1009.8
20260506141724 57 55 8.0 17.0 0.00 0.00 0.00 57 1009.7
20260506141456 57 338 7.0 17.0 0.00 0.00 0.00 58 1009.8
20260506140724 57 13 8.0 15.0 0.00 0.00 0.00 57 1009.7
20260506140222 57 53 8.0 15.0 0.00 0.00 0.00 56 1009.8
20260506135722 57 86 7.0 16.0 0.00 0.00 0.00 56 1009.7
20260506135222 57 69 7.0 16.0 0.00 0.00 0.00 56 1009.7
20260506134720 57 80 7.0 16.0 0.00 0.00 0.00 54 1009.6
20260506134222 57 81 7.0 16.0 0.00 0.00 0.00 54 1009.6
20260506133721 58 51 7.0 16.0 0.00 0.00 0.00 54 1009.5
20260506133221 58 64 6.0 16.0 0.00 0.00 0.00 54 1009.4
20260506132722 58 19 6.0 15.0 0.00 0.00 0.00 55 1009.5
20260506132222 58 27 7.0 15.0 0.00 0.00 0.00 53 1009.5
20260506131721 58 10 5.0 13.0 0.00 0.00 0.00 55 1009.4
20260506131220 58 355 4.0 11.0 0.00 0.00 0.00 57 1009.4
20260506130721 58 13 4.0 12.0 0.00 0.00 0.00 59 1009.4
20260506130452 57 311 5.0 12.0 0.00 0.00 0.00 60 1009.3
20260506125714 57 332 6.0 12.0 0.00 0.00 0.00 60 1009.2
20260506125207 57 74 6.0 12.0 0.00 0.00 0.00 60 1009.4
20260506124707 56 315 6.0 12.0 0.00 0.00 0.00 65 1009.3
20260506124208 56 317 6.0 12.0 0.00 0.00 0.00 66 1009.1
20260506123707 56 320 5.0 10.0 0.00 0.00 0.00 67 1009.2
20260506123207 56 307 5.0 10.0 0.00 0.00 0.00 68 1009.2
20260506122708 55 344 5.0 10.0 0.00 0.00 0.00 68 1009.1
20260506122207 56 15 5.0 10.0 0.00 0.00 0.00 68 1009.1
20260506121708 56 323 6.0 11.0 0.00 0.00 0.00 69 1009.2
20260506121202 56 5 6.0 11.0 0.00 0.00 0.00 69 1009.1
20260506120935 56 336 6.0 13.0 0.00 0.00 0.00 70 1009.1
20260506120204 56 350 6.0 13.0 0.00 0.00 0.00 70 1009.1
20260506115702 56 339 6.0 12.0 0.00 0.00 0.00 71 1009.0
20260506115156 56 355 7.0 12.0 0.00 0.00 0.00 71 1009.0
20260506114415 56 313 8.0 14.0 0.00 0.00 0.00 70 1009.1
20260506113644 56 306 8.0 14.0 0.00 0.00 0.00 70 1009.1
20260506113417 56 332 8.0 14.0 0.00 0.00 0.00 71 1009.1
20260506112647 56 5 7.0 13.0 0.00 0.00 0.00 71 1009.1
20260506112144 57 336 6.0 12.0 0.00 0.00 0.00 69 1009.1
20260506111645 57 347 6.0 12.0 0.00 0.00 0.00 69 1009.1
20260506111159 57 328 7.0 13.0 0.00 0.00 0.00 70 1009.0
20260506110644 58 329 8.0 13.0 0.00 0.00 0.00 67 1009.0
20260506110144 58 5 8.0 16.0 0.00 0.00 0.00 66 1008.9
20260506105644 58 344 9.0 16.0 0.00 0.00 0.00 66 1009.0
20260506105147 59 350 8.0 15.0 0.00 0.00 0.00 62 1008.9
20260506104643 60 331 7.0 14.0 0.00 0.00 0.00 60 1008.9
20260506104145 60 34 7.0 12.0 0.00 0.00 0.00 59 1008.8
20260506103640 60 333 7.0 16.0 0.00 0.00 0.00 54 1008.8
20260506103140 60 323 8.0 18.0 0.00 0.00 0.00 54 1008.8
20260506102911 60 5 8.0 18.0 0.00 0.00 0.00 55 1008.8
20260506102140 60 22 8.0 15.0 0.00 0.00 0.00 57 1008.7
20260506101640 60 90 9.0 14.0 0.00 0.00 0.00 57 1008.8
20260506101142 60 63 8.0 14.0 0.00 0.00 0.00 57 1008.8
20260506100640 60 21 7.0 14.0 0.00 0.00 0.00 60 1008.8
20260506100154 59 311 7.0 15.0 0.00 0.00 0.00 61 1008.7
20260506095910 60 351 7.0 15.0 0.00 0.00 0.00 60 1008.6
20260506095411 60 5 8.0 16.0 0.00 0.00 0.00 60 1008.7
20260506094640 59 5 7.0 16.0 0.00 0.00 0.00 61 1008.6
20260506094139 59 38 7.0 17.0 0.00 0.00 0.00 61 1008.7
20260506093636 59 38 7.0 17.0 0.00 0.00 0.00 62 1008.6
20260506093136 58 67 7.0 18.0 0.00 0.00 0.00 64 1008.6
20260506092635 58 74 7.0 18.0 0.00 0.00 0.00 63 1008.6
20260506092134 58 28 6.0 14.0 0.00 0.00 0.00 66 1008.6
20260506091636 58 355 7.0 13.0 0.00 0.00 0.00 65 1008.5
20260506091134 58 318 8.0 18.0 0.00 0.00 0.00 65 1008.5
20260506090634 58 21 8.0 18.0 0.00 0.00 0.00 64 1008.4
20260506090147 57 22 8.0 15.0 0.00 0.00 0.00 66 1008.4
20260506085905 57 24 8.0 16.0 0.00 0.00 0.00 66 1008.4
20260506085135 57 328 8.0 16.0 0.00 0.00 0.00 67 1008.3
20260506084635 57 334 7.0 17.0 0.00 0.00 0.00 67 1008.4
20260506084135 57 13 7.0 17.0 0.00 0.00 0.00 68 1008.4
20260506083632 57 342 8.0 14.0 0.00 0.00 0.00 69 1008.3
20260506083402 57 28 8.0 14.0 0.00 0.00 0.00 69 1008.3
20260506082631 57 317 7.0 13.0 0.00 0.00 0.00 71 1008.3
20260506082131 56 355 8.0 14.0 0.00 0.00 0.00 71 1008.3
20260506081131 56 0 7.0 14.0 0.00 0.00 0.00 77 1008.2
20260506080630 56 5 8.0 14.0 0.00 0.00 0.00 79 1008.2
20260506080412 56 0 8.0 15.0 0.00 0.00 0.00 79 1008.2
20260506073125 53 9 7.0 13.0 0.00 0.00 0.00 82 1008.2
20260506072625 53 0 7.0 14.0 0.00 0.00 0.00 83 1008.3
20260506071627 53 5 6.0 13.0 0.00 0.00 0.00 83 1008.2
20260506071127 52 331 7.0 13.0 0.00 0.00 0.00 84 1008.2
20260506070628 52 0 7.0 13.0 0.00 0.00 0.00 83 1008.2
20260506070125 52 333 7.0 13.0 0.00 0.00 0.00 83 1008.1
20260506062120 51 350 6.0 11.0 0.00 0.00 0.00 85 1007.9
20260506061119 51 331 6.0 12.0 0.00 0.00 0.00 86 1007.8
20260506060621 51 325 5.0 10.0 0.00 0.00 0.00 86 1007.9
20260506060121 51 317 5.0 10.0 0.00 0.00 0.00 87 1007.9
20260506051116 50 329 4.0 8.0 0.00 0.00 0.00 88 1008.0
20260506050611 50 296 4.0 9.0 0.00 0.00 0.00 88 1008.0
20260506050114 50 329 4.0 9.0 0.00 0.00 0.00 88 1008.0
20260506045110 50 333 4.0 9.0 0.00 0.00 0.00 87 1008.0
20260506044608 50 344 4.0 9.0 0.00 0.00 0.00 86 1007.9
20260506044059 50 349 4.0 8.0 0.00 0.00 0.00 86 1008.0
20260506043553 49 311 4.0 9.0 0.00 0.00 0.00 86 1008.1
20260506043320 49 329 3.0 9.0 0.00 0.00 0.00 86 1008.1
20260506042544 49 355 3.0 7.0 0.00 0.00 0.00 86 1008.0
20260506042044 49 23 4.0 8.0 0.00 0.00 0.00 85 1008.0
20260506041544 49 355 4.0 8.0 0.00 0.00 0.00 86 1008.1
20260506041044 49 328 4.0 10.0 0.00 0.00 0.00 85 1008.1
20260506040543 49 0 4.0 10.0 0.00 0.00 0.00 85 1008.0
20260506040057 49 327 5.0 11.0 0.00 0.00 0.00 85 1008.1
20260506035815 49 311 6.0 12.0 0.00 0.00 0.00 85 1008.1
20260506035043 49 0 6.0 12.0 0.00 0.00 0.00 85 1008.2
20260506034544 49 15 5.0 11.0 0.00 0.00 0.00 85 1008.2
20260506034043 49 347 5.0 11.0 0.00 0.00 0.00 84 1008.2
20260506033543 50 51 5.0 13.0 0.00 0.00 0.00 84 1008.3
20260506033312 50 11 5.0 13.0 0.00 0.00 0.00 83 1008.2
20260506032306 50 343 5.0 12.0 0.00 0.00 0.00 83 1008.3
20260506031535 50 10 6.0 12.0 0.00 0.00 0.00 83 1008.3
20260506031033 50 333 6.0 12.0 0.00 0.00 0.00 83 1008.4
20260506030531 50 335 6.0 11.0 0.00 0.00 0.00 82 1008.4
20260506030031 50 333 5.0 11.0 0.00 0.00 0.00 82 1008.3
20260506025531 50 11 4.0 13.0 0.00 0.00 0.00 82 1008.5
20260506025305 50 30 5.0 13.0 0.00 0.00 0.00 82 1008.5
20260506024531 50 305 6.0 13.0 0.00 0.00 0.00 82 1008.5
20260506024033 50 16 5.0 13.0 0.00 0.00 0.00 82 1008.6
20260506023531 50 61 6.0 12.0 0.00 0.00 0.00 82 1008.6
20260506023032 50 288 7.0 12.0 0.00 0.00 0.00 81 1008.6
20260506022531 50 71 6.0 12.0 0.00 0.00 0.00 81 1008.5
20260506022032 50 14 6.0 12.0 0.00 0.00 0.00 81 1008.5
20260506021802 50 329 7.0 13.0 0.00 0.00 0.00 81 1008.4
20260506021258 50 334 6.0 13.0 0.00 0.00 0.00 80 1008.4
20260506020527 50 329 5.0 10.0 0.00 0.00 0.00 82 1008.4
20260506020027 50 342 5.0 12.0 0.00 0.00 0.00 82 1008.4
20260506015527 50 334 4.0 12.0 0.00 0.00 0.00 84 1008.5
20260506015027 50 351 3.0 8.0 0.00 0.00 0.00 84 1008.4
20260506014527 50 311 4.0 8.0 0.00 0.00 0.00 84 1008.5
20260506014025 50 0 4.0 6.0 0.00 0.00 0.00 84 1008.5
20260506013532 50 341 3.0 6.0 0.00 0.00 0.00 84 1008.5
20260506013025 50 17 4.0 7.0 0.00 0.00 0.00 84 1008.5
20260506012525 50 329 4.0 9.0 0.00 0.00 0.00 84 1008.5
20260506012027 49 355 4.0 9.0 0.00 0.00 0.00 84 1008.6
20260506011525 50 351 4.0 9.0 0.00 0.00 0.00 84 1008.6
20260506011025 49 340 4.0 8.0 0.00 0.00 0.00 84 1008.6
20260506010519 49 337 4.0 8.0 0.00 0.00 0.00 84 1008.7
20260506010011 49 309 3.0 8.0 0.00 0.00 0.00 84 1008.7
20260506005509 49 322 3.0 8.0 0.00 0.00 0.00 84 1008.7
20260506004511 49 12 4.0 8.0 0.00 0.00 0.00 83 1008.9
20260506004011 49 298 4.0 8.0 0.00 0.00 0.00 83 1009.1
20260506003509 49 290 4.0 8.0 0.00 0.00 0.00 83 1009.0
20260506003011 50 355 4.0 8.0 0.00 0.00 0.00 83 1009.0
20260506002509 50 309 4.0 8.0 0.00 0.00 0.00 82 1008.9
20260506002009 50 311 4.0 8.0 0.00 0.00 0.00 82 1009.1
20260506001514 50 332 4.0 8.0 0.00 0.00 0.00 82 1009.1
20260506001242 50 311 4.0 9.0 0.00 0.00 0.00 82 1009.1
20260506000742 50 355 5.0 9.0 0.00 0.00 0.00 82 1009.3
20260506000000 50 14 5.0 9.0 0.00 0.00 0.00 81 1009.1
20260505235453 50 350 5.0 9.0 0.00 0.00 0.00 81 1009.2
20260505234948 50 355 5.0 11.0 0.00 0.00 0.00 81 1009.2
20260505234448 50 355 5.0 11.0 0.00 0.00 0.00 81 1009.3
20260505233949 50 335 5.0 9.0 0.00 0.00 0.00 80 1009.3
20260505233449 50 355 6.0 9.0 0.00 0.00 0.00 80 1009.3
20260505232950 50 336 6.0 14.0 0.00 0.00 0.00 80 1009.3
20260505232447 50 340 6.0 14.0 0.00 0.00 0.00 80 1009.4
20260505232219 50 305 5.0 11.0 0.00 0.00 0.00 80 1009.4
20260505231717 50 332 5.0 10.0 0.00 0.00 0.00 80 1009.4
20260505230947 50 313 5.0 10.0 0.00 0.00 0.00 80 1009.5
20260505230501 50 348 5.0 10.0 0.00 0.00 0.00 79 1009.5
20260505225447 49 342 5.0 9.0 0.00 0.00 0.00 80 1009.6
20260505224943 49 28 4.0 8.0 0.00 0.00 0.00 80 1009.6
20260505223941 49 318 3.0 7.0 0.00 0.00 0.00 80 1009.6
20260505223439 49 11 3.0 6.0 0.00 0.00 0.00 81 1009.6
20260505222939 49 355 3.0 6.0 0.00 0.00 0.00 81 1009.7
20260505222439 49 0 3.0 7.0 0.00 0.00 0.00 81 1009.7
20260505221940 49 338 3.0 7.0 0.00 0.00 0.00 81 1009.7
20260505221439 49 355 3.0 5.0 0.00 0.00 0.00 81 1009.7
20260505220939 49 342 3.0 6.0 0.00 0.00 0.00 81 1009.8
20260505220441 49 5 3.0 6.0 0.00 0.00 0.00 81 1009.8
20260505215938 49 355 2.0 5.0 0.00 0.00 0.00 81 1009.9
20260505215438 49 319 3.0 5.0 0.00 0.00 0.00 81 1009.9
20260505214938 49 338 3.0 5.0 0.00 0.00 0.00 81 1009.9
20260505214439 49 339 3.0 7.0 0.00 0.00 0.00 80 1009.9
20260505213940 49 338 4.0 7.0 0.00 0.00 0.00 80 1009.9
20260505213437 50 335 4.0 6.0 0.00 0.00 0.00 80 1010.0
20260505212938 50 336 4.0 8.0 0.00 0.00 0.00 79 1009.9
20260505212438 50 335 4.0 8.0 0.00 0.00 0.00 79 1010.0
20260505211939 50 10 5.0 9.0 0.00 0.00 0.00 79 1009.9
20260505211432 50 338 5.0 10.0 0.00 0.00 0.00 79 1009.9
20260505210932 50 332 5.0 10.0 0.00 0.00 0.00 78 1010.0
20260505210433 50 323 5.0 10.0 0.00 0.00 0.00 78 1010.0
20260505205931 50 355 5.0 11.0 0.00 0.00 0.00 78 1010.0
20260505205430 51 330 5.0 11.0 0.00 0.00 0.00 78 1010.0
20260505204930 51 5 5.0 11.0 0.00 0.00 0.00 78 1010.0
20260505204432 51 0 6.0 11.0 0.00 0.00 0.00 78 1010.1
20260505203929 51 322 6.0 11.0 0.00 0.00 0.00 78 1010.1
20260505203429 51 333 6.0 12.0 0.00 0.00 0.00 78 1010.1
20260505202931 51 321 7.0 12.0 0.00 0.00 0.00 78 1010.2
20260505202429 51 355 6.0 15.0 0.00 0.00 0.00 78 1010.2
20260505202202 51 0 6.0 15.0 0.00 0.00 0.00 78 1010.2
20260505201428 51 347 6.0 12.0 0.00 0.00 0.00 78 1010.1
20260505200928 51 0 5.0 11.0 0.00 0.00 0.00 78 1010.1
20260505200429 51 339 6.0 11.0 0.00 0.00 0.00 78 1010.0
20260505195922 51 49 7.0 11.0 0.00 0.00 0.00 78 1010.1
20260505195423 51 5 7.0 12.0 0.00 0.00 0.00 78 1010.0
20260505194923 52 29 7.0 14.0 0.00 0.00 0.00 78 1010.0